Find Starlink 36712

NORAD ID: 67700 Int'l Des: 2026-025 Owner: SPXS Country: US Constellation: starlink operational
LEOCIRCULARRETROGRADE

Current View

Loading 3D Globe...

About Starlink 36712

Description loading...

Upcoming Passes

Passes for default location (London). Set your location on the main map for personalized predictions.

Altitude History

Loading altitude history...

Two-Line Element Set

1 67700U 26025H 26145.57202894 .00016828 00000-0 52243-3 0 9994
2 67700 97.2847 257.1583 0000566 101.7961 258.3345 15.33445244 17791
Epoch: May 25, 2026 • Age: 15 hours

Current Status

Altitude 491.9 km
Velocity 7.62 km/s
Sub-Earth Point -69.45°S, 42.41°W
Launch Date Feb 7, 2026
Age 0.2 years
Type internet

Technical Details

Classification Payload
Mass 575.00 kg
Dry Mass 530.00 kg
Total Mass 575.00 kg
Length 0.30 m
Diameter 4.10 m
Span 29.00 m
Shape Box + pan
Manufacturer SPXS
Bus Type Starlink V2MO
Phase Status In Orbit
Owner/State SPXS/US

Most Searched